Weather History for PABR - June, 2014

Change the Weather History Date:

Tuesday, June 10, 2014

  Actual Average Record
Temperature  
Mean Temperature 32 °F 34 °F  
Max Temperature 34 °F 38 °F 53 °F (2006)
Min Temperature 29 °F 30 °F 18 °F (1933)
Degree Days  
Heating Degree Days 33 31  
Month to date heating degree days 338 331  
Since 1 June heating degree days 338 331  
Since 1 July heating degree days 17186 18838  
Cooling Degree Days 0    
Month to date cooling degree days 0  
Year to date cooling degree days 0  
Since 1 June cooling degree days 0  
Moisture  
Dew Point 29 °F    
Average Humidity 0    
Maximum Humidity 0    
Minimum Humidity 0    
Precipitation  
Precipitation T in 0.01 in 0.23 in (1993)
Month to date precipitation 0.22 0.08  
Year to date precipitation 1.84 0.78  
Snow  
Snow T in 0.00 in 0.40 in (1974)
Month to date snowfall 0.5 0.4  
Since 1 June snowfall 0.5 0.4  
Since 1 July snowfall 53.8 37.4  
Snow Depth T in    
Sea Level Pressure  
Sea Level Pressure 30.00 in    
Wind  
Wind Speed 11 mph (ENE)    
Max Wind Speed 16 mph    
Max Gust Speed 19 mph    
Visibility 6 miles    
Events Fog , Snow    
T = Trace of Precipitation, MM = Missing Value Source: NWS Daily Summary

Daily Weather History Graph

Daily Weather History Graph

Search for Another Location

Airport or City:

Trip Planner

Search our weather history database for the weather conditions in past years. The results will help you decide how hot, cold, wet, or windy it might be!

Date:

Astronomy

Dec. 31, 1969 Rise Set
Actual Time Sun does not rise Sun does not rise
Civil Twilight Sun does not rise Sun does not rise
Nautical Twilight Sun does not rise Sun does not rise
Astronomical Twilight Sun does not rise Sun does not rise
Moon 10:57 PM AKDT (6/10) 2:35 AM AKDT (6/10)
Length of Visible Light 24h 00m
Length of Day
24h 00m
Waxing Gibbous, 93% of the Moon is Illuminated
Jun 10
Waxing Gibbous
Jun 12
Full
Jun 19
Last Quarter
Jun 27
New
Jul 5
First Quarter

Hourly Weather History & Observations

Time (AKDT) Temp. Windchill Dew Point Humidity Pressure Visibility Wind Dir Wind Speed Gust Speed Precip Events Conditions
12:33 AM 28.9 °F 19.2 °F 27.0 °F 92% 29.97 in 1.8 mi ENE 11.5 mph - 0.00 in   Overcast
12:44 AM 28.9 °F 19.8 °F 28.0 °F 96% 29.97 in 4.0 mi ENE 10.4 mph - 0.00 in   Overcast
12:51 AM 28.4 °F 19.1 °F 28.4 °F 100% 29.97 in 1.2 mi East 10.4 mph - 0.00 in   Overcast
12:53 AM 28.9 °F 20.4 °F 28.0 °F 96% 29.98 in 0.8 mi ENE 9.2 mph - 0.00 in   Overcast
1:00 AM 28.9 °F 19.8 °F 28.0 °F 96% 29.98 in 0.2 mi ENE 10.4 mph - N/A Fog Light Freezing Fog
1:53 AM 30.0 °F 20.5 °F 28.0 °F 92% 29.98 in 0.2 mi East 11.5 mph - N/A Fog Light Freezing Fog
2:43 AM 30.0 °F 21.1 °F 28.0 °F 92% 29.98 in 1.0 mi ENE 10.4 mph - N/A   Mist
2:53 AM 30.0 °F 21.1 °F 28.0 °F 92% 29.98 in 2.0 mi ENE 10.4 mph - N/A   Overcast
3:00 AM 30.0 °F 22.4 °F 28.9 °F 96% 29.98 in 0.8 mi East 8.1 mph - N/A   Overcast
3:08 AM 30.0 °F 22.4 °F 28.9 °F 96% 29.98 in 0.5 mi East 8.1 mph - N/A Fog Light Freezing Fog
3:53 AM 30.0 °F 22.4 °F 28.9 °F 96% 29.99 in 0.2 mi East 8.1 mph - N/A Fog Light Freezing Fog
4:31 AM 30.0 °F 21.7 °F 28.9 °F 96% 29.98 in 0.2 mi ENE 9.2 mph - N/A Fog Light Freezing Fog
4:53 AM 30.0 °F 22.4 °F 28.9 °F 96% 29.98 in 0.2 mi ENE 8.1 mph - N/A Fog Light Freezing Fog
5:05 AM 30.0 °F 21.7 °F 28.9 °F 96% 29.97 in 1.0 mi East 9.2 mph - N/A   Mist
5:08 AM 30.0 °F 21.1 °F 28.9 °F 96% 29.97 in 3.0 mi ENE 10.4 mph - N/A   Overcast
5:14 AM 30.0 °F 22.4 °F 28.9 °F 96% 29.97 in 1.2 mi East 8.1 mph - N/A   Overcast
5:53 AM 30.0 °F 21.1 °F 28.9 °F 96% 29.97 in 10.0 mi ENE 10.4 mph - N/A   Overcast
6:33 AM 30.0 °F 21.1 °F 28.9 °F 96% 29.97 in 1.5 mi ENE 10.4 mph - N/A   Overcast
6:37 AM 30.0 °F 21.7 °F 28.9 °F 96% 29.97 in 0.5 mi ENE 9.2 mph - N/A Fog Light Freezing Fog
6:44 AM 30.0 °F 21.7 °F 28.9 °F 96% 29.97 in 1.0 mi NE 9.2 mph - N/A   Overcast
6:47 AM 30.2 °F 20.8 °F 28.4 °F 93% 29.97 in 3.0 mi NE 11.5 mph - N/A   Overcast
6:53 AM 30.0 °F 21.1 °F 28.9 °F 96% 29.98 in 10.0 mi ENE 10.4 mph - N/A   Overcast
7:15 AM 30.0 °F 21.1 °F 28.0 °F 92% 29.98 in 10.0 mi ENE 10.4 mph - N/A   Overcast
7:53 AM 30.9 °F 22.2 °F 28.9 °F 92% 29.98 in 10.0 mi ENE 10.4 mph - N/A   Overcast
8:53 AM 30.9 °F 22.2 °F 28.0 °F 89% 29.99 in 7.0 mi ENE 10.4 mph - 0.00 in Snow Light Snow
9:53 AM 32.0 °F 23.6 °F 28.9 °F 88% 29.99 in 6.0 mi ENE 10.4 mph - 0.00 in Snow Light Snow
10:53 AM 32.0 °F 24.2 °F 28.9 °F 88% 30.00 in 10.0 mi ENE 9.2 mph - 0.00 in   Overcast
11:53 AM 32.0 °F 23.6 °F 28.4 °F 87% 30.01 in 10.0 mi ENE 10.4 mph - N/A Snow Light Snow
1:53 PM 33.1 °F 24.9 °F 28.9 °F 85% 30.03 in 10.0 mi ENE 10.4 mph - 0.00 in   Overcast
2:31 PM 33.1 °F 25.5 °F 28.9 °F 85% 30.03 in 10.0 mi NE 9.2 mph - N/A   Overcast
2:53 PM 33.8 °F 26.4 °F 28.4 °F 81% 30.03 in 10.0 mi NE 9.2 mph - N/A   Overcast
3:53 PM 34.0 °F 26.0 °F 28.9 °F 82% 30.04 in 9.0 mi NNE 10.4 mph - 0.00 in Snow Light Snow
4:50 PM 33.8 °F 26.4 °F 30.2 °F 87% 30.04 in 9.0 mi NNE 9.2 mph - 0.00 in Snow Light Snow
4:53 PM 34.0 °F 25.5 °F 30.0 °F 85% 30.05 in 9.0 mi NE 11.5 mph - 0.00 in Snow Light Snow
5:49 PM 33.8 °F 25.3 °F 28.4 °F 81% 30.04 in 10.0 mi NNE 11.5 mph - 0.00 in   Overcast
5:53 PM 34.0 °F 25.0 °F 28.9 °F 82% 30.04 in 10.0 mi NNE 12.7 mph - 0.00 in   Overcast
6:53 PM 33.1 °F 23.0 °F 28.0 °F 82% 30.04 in 10.0 mi NE 15.0 mph - N/A   Overcast
7:40 PM 34.0 °F 25.5 °F 28.9 °F 82% 30.04 in 10.0 mi NE 11.5 mph - N/A   Overcast
7:53 PM 33.1 °F 23.4 °F 28.9 °F 85% 30.04 in 10.0 mi NE 13.8 mph - N/A   Overcast
8:53 PM 33.1 °F 23.9 °F 28.0 °F 82% 30.06 in 10.0 mi NE 12.7 mph - N/A   Overcast
9:53 PM 33.1 °F 24.4 °F 28.0 °F 82% 30.06 in 10.0 mi ENE 11.5 mph - N/A   Overcast
10:53 PM 32.0 °F 23.0 °F 28.0 °F 85% 30.07 in 10.0 mi ENE 11.5 mph - N/A   Overcast
11:53 PM 32.0 °F 24.2 °F 28.0 °F 85% 30.07 in 10.0 mi ENE 9.2 mph - N/A   Overcast